contact:dominique.lefevre@mio.osupytheas.fr, maurice.libes@osupytheas.fr
Project:EMSO Ligure-ouest http://www.emso-fr.org/EMSO-France
Sensor Aquadopp, line 13 Serial AQD14315 
DOI : "https://doi.org/10.17882/74513; https://doi.org/10.17882/83244" 
Title:EMSO Ligure Ouest : Data ligne ALBATROSS capteur AQUADOPP - deploiement 2021
Id,Date,Profondeur,Latitude,Longitude,X_East,Y_North,Z_Up,Amplitude_X,Amplitude_Y,Amplitude_Z,Batterie,SoundSpeed,Heading,Pitch,Roll,Pressure,Temperature,Speed,Direction
, , m, degrees North, degrees East, m.s-1, m.s-1,m.s-1, 1, 1, 1, Volt, m.s-1, degree, degree, degree, dbar, degree_C, m.s-1, degree
09,2021-12-19T21:30:00,2000.0,42.79,6.0312,0.011,0.065,-0.016,67.0,62.0,64.0,12.4,1504.7,343.8,-1.0,1.1,1990.64,13.28,0.065,9.6
09,2021-12-19T22:00:00,2000.0,42.79,6.0312,0.013,0.069,-0.002,65.0,60.0,64.0,12.4,1504.7,359.1,-1.5,1.0,1990.604,13.28,0.07,10.7
09,2021-12-19T22:30:00,2000.0,42.79,6.0312,0.025,0.058,0.001,64.0,61.0,64.0,12.4,1504.7,354.2,-1.0,1.1,1990.619,13.28,0.063,23.3
09,2021-12-19T23:00:00,2000.0,42.79,6.0312,0.009,0.068,-0.028,61.0,61.0,64.0,12.4,1504.7,346.7,-1.5,0.8,1990.57,13.28,0.068,7.5
09,2021-12-19T23:30:00,2000.0,42.79,6.0312,0.004,0.056,-0.014,64.0,61.0,63.0,12.4,1504.7,359.2,-1.4,0.9,1990.592,13.28,0.056,4.1
09,2021-12-20T00:00:00,2000.0,42.79,6.0312,0.002,0.07,-0.017,64.0,59.0,62.0,12.4,1504.7,354.0,-1.3,0.8,1990.58,13.28,0.07,1.6
09,2021-12-20T00:30:00,2000.0,42.79,6.0312,0.017,0.047,0.003,66.0,61.0,62.0,12.4,1504.7,349.9,-1.3,0.9,1990.528,13.28,0.049,19.9
09,2021-12-20T01:00:00,2000.0,42.79,6.0312,0.01,0.068,-0.027,61.0,64.0,65.0,12.4,1504.7,349.1,-1.3,1.1,1990.502,13.28,0.068,8.4
09,2021-12-20T01:30:00,2000.0,42.79,6.0312,0.004,0.052,-0.007,65.0,62.0,65.0,12.4,1504.7,352.3,-1.2,1.0,1990.507,13.28,0.052,4.4
09,2021-12-20T02:00:00,2000.0,42.79,6.0312,-0.001,0.069,0.001,64.0,60.0,63.0,12.4,1504.7,347.7,-0.9,1.2,1990.509,13.28,0.069,359.2
09,2021-12-20T02:30:00,2000.0,42.79,6.0312,-0.004,0.033,0.008,64.0,59.0,63.0,12.4,1504.7,345.6,-1.2,1.1,1990.479,13.28,0.033,353.1
09,2021-12-20T03:00:00,2000.0,42.79,6.0312,0.006,0.045,0.031,63.0,61.0,63.0,12.4,1504.7,357.8,-1.2,1.0,1990.5,13.28,0.045,7.6
09,2021-12-20T03:30:00,2000.0,42.79,6.0312,-0.005,0.058,0.005,65.0,60.0,63.0,12.4,1504.7,347.2,-1.3,1.1,1990.527,13.28,0.058,355.1
09,2021-12-20T04:00:00,2000.0,42.79,6.0312,0.0,0.06,-0.011,63.0,61.0,64.0,12.4,1504.7,7.1,-1.2,1.0,1990.539,13.28,0.06,0.0
09,2021-12-20T04:30:00,2000.0,42.79,6.0312,-0.005,0.039,0.003,63.0,60.0,64.0,12.4,1504.7,358.8,-1.1,1.0,1990.607,13.28,0.039,352.7
09,2021-12-20T05:00:00,2000.0,42.79,6.0312,-0.023,0.067,-0.014,64.0,61.0,64.0,12.4,1504.7,344.7,-1.2,1.2,1990.579,13.28,0.07,341.1
09,2021-12-20T05:30:00,2000.0,42.79,6.0312,-0.029,0.058,0.013,66.0,61.0,63.0,12.4,1504.7,338.6,-0.8,1.1,1990.642,13.28,0.064,333.4
09,2021-12-20T06:00:00,2000.0,42.79,6.0312,0.029,0.072,-0.002,64.0,61.0,63.0,12.4,1504.7,354.6,-0.9,1.0,1990.637,13.28,0.077,21.9
09,2021-12-20T06:30:00,2000.0,42.79,6.0312,-0.002,0.059,-0.016,64.0,61.0,65.0,12.4,1504.7,344.4,-1.2,0.9,1990.71,13.28,0.059,358.1
09,2021-12-20T07:00:00,2000.0,42.79,6.0312,-0.01,0.05,0.006,63.0,61.0,65.0,12.4,1504.7,352.2,-1.0,1.1,1990.762,13.28,0.05,348.7
09,2021-12-20T07:30:00,2000.0,42.79,6.0312,-0.004,0.064,0.008,64.0,62.0,63.0,12.4,1504.7,348.7,-0.8,0.9,1990.756,13.28,0.064,356.4
09,2021-12-20T08:00:00,2000.0,42.79,6.0312,-0.002,0.066,-0.013,67.0,60.0,65.0,12.4,1504.7,344.7,-1.1,1.0,1990.746,13.28,0.066,358.3
09,2021-12-20T08:30:00,2000.0,42.79,6.0312,-0.016,0.084,-0.004,65.0,61.0,64.0,12.4,1504.7,343.6,-0.9,1.1,1990.751,13.28,0.085,349.2
09,2021-12-20T09:00:00,2000.0,42.79,6.0312,-0.02,0.065,0.007,67.0,63.0,65.0,12.4,1504.7,348.4,-0.8,1.2,1990.741,13.28,0.068,342.9
09,2021-12-20T09:30:00,2000.0,42.79,6.0312,0.015,0.067,-0.001,66.0,62.0,64.0,12.4,1504.7,352.0,-0.8,1.2,1990.693,13.28,0.068,12.6
09,2021-12-20T10:00:00,2000.0,42.79,6.0312,-0.001,0.074,-0.009,64.0,60.0,65.0,12.4,1504.7,339.3,-0.7,1.0,1990.761,13.28,0.074,359.2
09,2021-12-20T10:30:00,2000.0,42.79,6.0312,0.008,0.051,-0.01,65.0,61.0,64.0,12.4,1504.7,346.2,-0.8,0.8,1990.752,13.28,0.051,8.9
09,2021-12-20T11:00:00,2000.0,42.79,6.0312,0.002,0.07,-0.007,65.0,61.0,63.0,12.4,1504.7,345.1,-1.3,1.0,1990.707,13.28,0.07,1.6
09,2021-12-20T11:30:00,2000.0,42.79,6.0312,0.035,0.078,-0.024,66.0,61.0,66.0,12.4,1504.7,342.1,-1.0,0.9,1990.678,13.28,0.085,24.2
09,2021-12-20T12:00:00,2000.0,42.79,6.0312,0.005,0.066,0.017,67.0,61.0,66.0,12.4,1504.7,338.6,-0.8,1.1,1990.619,13.28,0.066,4.3
09,2021-12-20T13:00:00,2000.0,42.79,6.0312,0.008,0.077,-0.029,68.0,63.0,64.0,12.4,1504.7,334.0,-1.2,0.9,1990.646,13.28,0.077,5.9
09,2021-12-20T13:30:00,2000.0,42.79,6.0312,0.026,0.044,-0.022,66.0,63.0,65.0,12.4,1504.7,353.6,-1.2,1.0,1990.597,13.28,0.051,30.6
09,2021-12-20T14:00:00,2000.0,42.79,6.0312,0.031,0.058,-0.01,64.0,62.0,63.0,12.4,1504.7,341.2,-1.1,0.8,1990.604,13.28,0.065,28.1
09,2021-12-20T14:30:00,2000.0,42.79,6.0312,0.032,0.042,-0.007,66.0,61.0,67.0,12.4,1504.7,348.3,-1.1,1.1,1990.555,13.28,0.052,37.3
09,2021-12-20T15:00:00,2000.0,42.79,6.0312,0.032,0.046,0.012,66.0,61.0,65.0,12.4,1504.7,342.6,-1.0,1.1,1990.625,13.28,0.056,34.8
09,2021-12-20T15:30:00,2000.0,42.79,6.0312,0.003,0.041,0.002,66.0,60.0,64.0,12.4,1504.7,345.2,-0.5,1.0,1990.606,13.28,0.041,4.2
09,2021-12-20T16:00:00,2000.0,42.79,6.0312,0.05,0.053,-0.005,67.0,62.0,66.0,12.4,1504.7,6.8,-0.8,0.9,1990.594,13.28,0.072,43.3
09,2021-12-20T16:30:00,2000.0,42.79,6.0312,0.019,0.038,-0.012,67.0,60.0,67.0,12.4,1504.7,354.2,-1.2,0.9,1990.559,13.28,0.042,26.6
09,2021-12-20T17:00:00,2000.0,42.79,6.0312,0.023,0.04,0.011,68.0,63.0,66.0,12.4,1504.7,355.7,-1.1,1.0,1990.604,13.28,0.046,29.9
09,2021-12-20T17:30:00,2000.0,42.79,6.0312,0.026,0.034,-0.021,66.0,63.0,65.0,12.4,1504.7,353.7,-0.8,1.0,1990.618,13.28,0.042,37.4
09,2021-12-20T18:00:00,2000.0,42.79,6.0312,0.006,0.04,-0.019,68.0,60.0,65.0,12.4,1504.7,354.8,-1.0,0.9,1990.636,13.28,0.04,8.5
09,2021-12-20T18:30:00,2000.0,42.79,6.0312,0.004,0.049,-0.017,65.0,62.0,65.0,12.4,1504.7,356.8,-0.8,0.9,1990.654,13.28,0.049,4.7
09,2021-12-20T19:00:00,2000.0,42.79,6.0312,0.0,0.007,-0.019,65.0,63.0,66.0,12.4,1504.7,357.4,-1.1,0.9,1990.655,13.28,0.007,0.0
09,2021-12-20T19:30:00,2000.0,42.79,6.0312,0.012,0.029,0.007,65.0,64.0,65.0,12.4,1504.7,0.3,-0.9,1.0,1990.649,13.28,0.031,22.5
09,2021-12-20T20:00:00,2000.0,42.79,6.0312,0.0,0.027,-0.011,67.0,59.0,64.0,12.4,1504.6,0.3,-1.0,0.9,1990.664,13.27,0.026,0.0
09,2021-12-20T20:30:00,2000.0,42.79,6.0312,0.003,0.034,0.0,66.0,62.0,65.0,12.4,1504.6,355.8,-0.9,0.9,1990.678,13.27,0.034,5.0
09,2021-12-20T21:00:00,2000.0,42.79,6.0312,-0.013,0.024,-0.003,66.0,62.0,65.0,12.4,1504.6,357.4,-0.9,0.9,1990.667,13.27,0.027,331.6
